OBJECT G, 57172

Orbit data source: Space-Track

You're viewing an uncataloged RSO

Recently launched and/or uncataloged RSOs may have evolving metadata. Metadata may include the following, but is not limited to: Owner, Manufacturer, Bus, Motor, and Mission.

OBJECT G, 57172 is a satellite in SSO that was launched on Tue, 27 Jun 2023 UTC via a SOYUZ-2-1B launch vehicle from the Vostochny Cosmodrome (VOSTO). Unknown objects in Earth's orbit typically refer to objects detected orbiting the Earth but have not yet been identified or cataloged. These objects could be anything from previously untracked satellites, spent rocket stages, debris from satellite collisions, or even natural meteoroids temporarily captured by Earth's gravity.

Loading next visibility...
Identifier
57172, 2023-091G
Orbit
SSO
Country
Flag of TBDTBD
Related business
None
Manufacturer
Unknown
Mission
Operational Amateur Technology
Bus & Motor
Unknown
Mass
Unknown
Launch date (UTC)
2023-06-27 (3 years ago)
Launch vehicle
SOYUZ-2-1B
Launch site
Vostochny Cosmodrome (VOSTO)
Object type
Unknown
Shape & HBR
Box, 0.2 m
Radar Cross Section
0.035 m², Medium (>0.1 m² and < 1m²)

Expand to show TLE details & history
Last TLE update: 5 hours ago

TLE from 5 hours ago
0 OBJECT G
1 57172U 23091G   26257.15561626  .00004216  00000-0  18923-3 0  9990
2 57172  97.4955 315.5210 0012970 162.1487 198.0207 15.21667685177535
Epoch: 2026-09-14T03:44Z
TLE epoch observation values (Epoch: 2026-09-14T03:44:05.244Z)
Latitude
-0.00005°
Longitude
-93.64081°
Altitude
512.387 km
Speed
7.603 km/s
True Right ascension
21h 02m 05s
True Declination
0° 00' 00"
Sunlit
Object was in full shadow at epoch
Visualization orbit readout
Latitude
Unknown
Longitude
Unknown
Altitude
Unknown
Speed
Unknown
Apparent Right ascension
Unknown
Apparent Declination
Unknown
Sunlit
N/A
Visualization observer readout
Local Sidereal Time
01:05:04
Azimuth
Unknown
Elevation
Unknown
Doppler factor
Unknown
Orbital elements
Apogee altitude
506.696 km
Perigee altitude
488.859 km
Semi-major axis
6,875.914 km
Eccentricity
0.0013
Inclination
97.4955°
RAAN
315.521°
Arg. of periapsis
162.1487°
True anomaly
197.97479°
Mean anomaly
198.0207°
Eccentric anomaly
197.99774°
Mean motion
3.80669 °/min
Orbital period
94.57 mins
BSTAR
0.00018923
Loading maneuver chart data...
Computing Atmospheric mass density...
Loading historical data...
Loading historical data...
Loading historical data...
Loading historical data...
Loading historical data...
Loading historical data...
Loading historical data...

Documentation

Showing up to 5 results
|